When you browse on this site, cookies collect data to enhance your experience and personalize the content and advertising you see.
Visit our Privacy Policy to learn more. By continuing to use the site, you agree to this use of cookies and data.
  • In France
  • List of Countries
  • For 7 days
  • Water Temperature
  • Satellite Maps
  • Weather Map
  • Weather Widgets
  • user-avatar
    Login

    Hourly Weather Boston

    Today, 19 June, Wednesday

    Time Temperature Precipitation Wind Pressure Humidity
    00:00 +15°C° 1 mm 2 mps 757 mmHg 98%
    01:00 +15°C° 0.6 mm 1 mps 756 mmHg 97%
    02:00 +14°C° 0.6 mm 1 mps 756 mmHg 96%
    03:00 +14°C° 0.6 mm 1 mps 755 mmHg 96%
    04:00 +14°C° 0 mm 1 mps 755 mmHg 94%
    05:00 +15°C° 0 mm 1 mps 755 mmHg 93%
    06:00 +15°C° 0 mm 1 mps 754 mmHg 92%
    07:00 +15°C° 0 mm 1 mps 754 mmHg 92%
    08:00 +16°C° 0 mm 2 mps 754 mmHg 92%
    09:00 +16°C° 0 mm 3 mps 754 mmHg 92%
    10:00 +17°C° 0 mm 3 mps 754 mmHg 90%
    11:00 +17°C° 0 mm 3 mps 754 mmHg 88%
    12:00 +17°C° 0 mm 3 mps 754 mmHg 86%
    13:00 +18°C° 0.1 mm 3 mps 754 mmHg 85%
    14:00 +18°C° 0.1 mm 3 mps 754 mmHg 83%
    15:00 +19°C° 0.1 mm 2 mps 754 mmHg 82%
    16:00 +18°C° 0.1 mm 2 mps 754 mmHg 83%
    17:00 +18°C° 0.1 mm 2 mps 754 mmHg 85%
    18:00 +18°C° 0.1 mm 1 mps 754 mmHg 87%
    19:00 +17°C° 0 mm 2 mps 755 mmHg 88%
    20:00 +16°C° 0 mm 2 mps 755 mmHg 89%
    21:00 +15°C° 0 mm 2 mps 755 mmHg 90%
    22:00 +14°C° 0 mm 2 mps 755 mmHg 90%
    23:00 +12°C° 0 mm 3 mps 756 mmHg 89%

    Tomorrow, 20 June, Thursday

    Time Temperature Precipitation Wind Pressure Humidity
    00:00 +11°C° 0 mm 3 mps 756 mmHg 88%
    01:00 +10°C° 0 mm 3 mps 756 mmHg 89%
    02:00 +10°C° 0 mm 3 mps 756 mmHg 90%
    03:00 +9°C° 0 mm 3 mps 756 mmHg 90%
    04:00 +10°C° 0 mm 3 mps 756 mmHg 91%
    05:00 +10°C° 0 mm 3 mps 756 mmHg 91%
    06:00 +11°C° 0 mm 4 mps 756 mmHg 91%
    07:00 +12°C° 0 mm 4 mps 757 mmHg 86%
    08:00 +14°C° 0 mm 4 mps 757 mmHg 81%
    09:00 +15°C° 0 mm 4 mps 757 mmHg 77%
    10:00 +15°C° 0.2 mm 4 mps 757 mmHg 77%
    11:00 +15°C° 0.2 mm 5 mps 757 mmHg 77%
    12:00 +15°C° 0.2 mm 5 mps 757 mmHg 77%
    13:00 +16°C° 0.1 mm 5 mps 758 mmHg 76%
    14:00 +16°C° 0.1 mm 5 mps 758 mmHg 75%
    15:00 +16°C° 0.1 mm 5 mps 758 mmHg 74%
    16:00 +16°C° 0.1 mm 5 mps 758 mmHg 76%
    17:00 +15°C° 0.1 mm 4 mps 758 mmHg 78%
    18:00 +15°C° 0.1 mm 4 mps 758 mmHg 81%
    19:00 +13°C° 0 mm 3 mps 759 mmHg 83%
    20:00 +12°C° 0 mm 3 mps 759 mmHg 85%
    21:00 +10°C° 0 mm 3 mps 759 mmHg 87%
    22:00 +10°C° 0 mm 3 mps 760 mmHg 88%
    23:00 +9°C° 0 mm 3 mps 760 mmHg 88%

    Day after tomorrow, 21 June, Friday

    Time Temperature Precipitation Wind Pressure Humidity
    00:00 +8°C° 0 mm 3 mps 760 mmHg 89%
    01:00 +8°C° 0 mm 3 mps 760 mmHg 90%
    02:00 +7°C° 0 mm 3 mps 760 mmHg 91%
    03:00 +7°C° 0 mm 3 mps 760 mmHg 93%
    04:00 +8°C° 0 mm 3 mps 760 mmHg 91%
    05:00 +8°C° 0 mm 4 mps 761 mmHg 90%
    06:00 +10°C° 0 mm 4 mps 761 mmHg 89%
    07:00 +11°C° 0 mm 4 mps 761 mmHg 84%
    08:00 +13°C° 0 mm 4 mps 762 mmHg 80%
    09:00 +14°C° 0 mm 5 mps 762 mmHg 75%
    10:00 +15°C° 0.1 mm 4 mps 762 mmHg 72%
    11:00 +15°C° 0.1 mm 4 mps 762 mmHg 69%
    12:00 +17°C° 0.1 mm 4 mps 763 mmHg 66%
    13:00 +17°C° 0.1 mm 4 mps 763 mmHg 66%
    14:00 +17°C° 0.1 mm 4 mps 763 mmHg 66%
    15:00 +18°C° 0.1 mm 4 mps 763 mmHg 65%
    16:00 +17°C° 0.1 mm 3 mps 763 mmHg 69%
    17:00 +17°C° 0.1 mm 3 mps 763 mmHg 72%
    18:00 +17°C° 0.1 mm 2 mps 763 mmHg 76%
    19:00 +15°C° 0 mm 2 mps 764 mmHg 77%
    20:00 +13°C° 0 mm 2 mps 764 mmHg 79%
    21:00 +10°C° 0 mm 2 mps 765 mmHg 81%
    22:00 +11°C° 0 mm 1 mps 765 mmHg 82%
    23:00 +10°C° 0 mm 1 mps 765 mmHg 83%

    22 June, Saturday

    Time Temperature Precipitation Wind Pressure Humidity
    00:00 +9°C° 0 mm 1 mps 765 mmHg 85%
    01:00 +9°C° 0 mm 1 mps 765 mmHg 85%
    02:00 +8°C° 0 mm 0 mps 765 mmHg 85%
    03:00 +7°C° 0 mm 0 mps 765 mmHg 85%
    04:00 +9°C° 0 mm 0 mps 765 mmHg 84%
    05:00 +10°C° 0 mm 0 mps 765 mmHg 83%
    06:00 +11°C° 0 mm 0 mps 765 mmHg 82%
    07:00 +13°C° 0 mm 0 mps 765 mmHg 79%
    08:00 +15°C° 0 mm 1 mps 765 mmHg 76%
    09:00 +16°C° 0 mm 1 mps 765 mmHg 73%
    10:00 +18°C° 0.1 mm 1 mps 765 mmHg 71%
    11:00 +18°C° 0.1 mm 2 mps 765 mmHg 70%
    12:00 +18°C° 0.1 mm 2 mps 765 mmHg 68%
    13:00 +18°C° 0.1 mm 3 mps 765 mmHg 71%
    14:00 +18°C° 0.1 mm 3 mps 765 mmHg 73%
    15:00 +18°C° 0.1 mm 3 mps 765 mmHg 75%
    16:00 +17°C° 0.1 mm 3 mps 765 mmHg 78%
    17:00 +17°C° 0.1 mm 4 mps 765 mmHg 81%
    18:00 +17°C° 0.1 mm 4 mps 765 mmHg 83%
    19:00 +16°C° 0.1 mm 3 mps 765 mmHg 85%
    20:00 +14°C° 0.1 mm 3 mps 765 mmHg 86%
    21:00 +14°C° 0.1 mm 2 mps 766 mmHg 88%
    22:00 +13°C° 0 mm 2 mps 766 mmHg 90%
    23:00 +12°C° 0 mm 3 mps 766 mmHg 91%

    23 June, Sunday

    Time Temperature Precipitation Wind Pressure Humidity
    00:00 +11°C° 0 mm 3 mps 766 mmHg 93%
    01:00 +11°C° 0 mm 3 mps 766 mmHg 92%
    02:00 +12°C° 0 mm 2 mps 766 mmHg 90%
    03:00 +12°C° 0 mm 2 mps 766 mmHg 89%
    04:00 +12°C° 0 mm 2 mps 766 mmHg 88%
    05:00 +13°C° 0 mm 2 mps 766 mmHg 87%
    06:00 +13°C° 0 mm 2 mps 766 mmHg 85%
    07:00 +13°C° 0 mm 3 mps 766 mmHg 82%
    08:00 +16°C° 0 mm 3 mps 766 mmHg 78%
    09:00 +17°C° 0 mm 4 mps 766 mmHg 74%
    10:00 +16°C° 0 mm 5 mps 766 mmHg 75%
    11:00 +17°C° 0 mm 5 mps 766 mmHg 75%
    12:00 +17°C° 0 mm 6 mps 766 mmHg 76%
    13:00 +17°C° 0 mm 6 mps 766 mmHg 75%
    14:00 +17°C° 0 mm 6 mps 766 mmHg 74%
    15:00 +17°C° 0 mm 7 mps 766 mmHg 72%
    16:00 +16°C° 0 mm 6 mps 766 mmHg 76%
    17:00 +15°C° 0 mm 6 mps 766 mmHg 79%
    18:00 +14°C° 0 mm 5 mps 765 mmHg 83%
    19:00 +14°C° 0 mm 6 mps 766 mmHg 84%
    20:00 +14°C° 0 mm 6 mps 766 mmHg 85%
    21:00 +14°C° 0 mm 6 mps 766 mmHg 86%
    22:00 +14°C° 0 mm 6 mps 766 mmHg 87%
    23:00 +14°C° 0 mm 6 mps 766 mmHg 87%

    24 June, Monday

    Time Temperature Precipitation Wind Pressure Humidity
    00:00 +14°C° 0 mm 5 mps 766 mmHg 87%
    01:00 +13°C° 0.7 mm 6 mps 766 mmHg 90%
    02:00 +13°C° 0.7 mm 6 mps 765 mmHg 93%
    03:00 +12°C° 0.7 mm 7 mps 765 mmHg 95%
    04:00 +12°C° 0.4 mm 7 mps 765 mmHg 95%
    05:00 +12°C° 0.4 mm 7 mps 764 mmHg 94%
    06:00 +12°C° 0.4 mm 7 mps 764 mmHg 93%
    07:00 +12°C° 0.3 mm 8 mps 764 mmHg 93%
    08:00 +13°C° 0.3 mm 8 mps 764 mmHg 93%
    09:00 +13°C° 0.3 mm 9 mps 764 mmHg 93%
    10:00 +13°C° 0.3 mm 8 mps 764 mmHg 93%
    11:00 +13°C° 0.3 mm 8 mps 764 mmHg 94%
    12:00 +13°C° 0.3 mm 8 mps 764 mmHg 94%
    13:00 +15°C° 0.1 mm 8 mps 764 mmHg 93%
    14:00 +15°C° 0.1 mm 8 mps 764 mmHg 92%
    15:00 +15°C° 0.1 mm 8 mps 763 mmHg 92%
    16:00 +15°C° 0.1 mm 8 mps 763 mmHg 92%
    17:00 +15°C° 0.1 mm 9 mps 763 mmHg 92%
    18:00 +15°C° 0.1 mm 9 mps 763 mmHg 92%
    19:00 +15°C° 0 mm 9 mps 763 mmHg 92%
    20:00 +15°C° 0 mm 8 mps 763 mmHg 91%
    21:00 +15°C° 0 mm 8 mps 763 mmHg 91%
    22:00 +15°C° 0.4 mm 8 mps 763 mmHg 92%
    23:00 +15°C° 0.4 mm 8 mps 763 mmHg 93%
    Show more